Gainesville, GA

7:07 AM EDT on June 24, 2017 (GMT -0400)
Gilmer Memorial

Weather History for KGVL - November, 2013

Change the Weather History Date:

Monday, November 4, 2013

  Actual Average Record
Temperature  
Mean Temperature 53 °F 56 °F  
Max Temperature 60 °F 66 °F 83 °F (1946)
Min Temperature 45 °F 47 °F 22 °F (1937)
Degree Days  
Heating Degree Days 12 9  
Month to date heating degree days 32 35  
Since 1 July heating degree days 163 193  
Growing Degree Days 2 (Base 50)    
Moisture  
Dew Point 34 °F    
Average Humidity 54    
Maximum Humidity 71    
Minimum Humidity 36    
Precipitation  
Precipitation 0.00 in 0.11 in 1.14 in (1968)
Month to date precipitation 0.31 0.42  
Year to date precipitation 45.43  
Snow  
Snow 0.00 in - - ()
Month to date snowfall 0.0  
Since 1 July snowfall 0.0  
Since 1 September snowfall 0.0  
Snow Depth 0.00 in    
Sea Level Pressure  
Sea Level Pressure 30.41 in    
Wind  
Wind Speed 9 mph (ENE)    
Max Wind Speed 17 mph    
Max Gust Speed 22 mph    
Visibility 10 miles    
Events      
T = Trace of Precipitation, MM = Missing Value Source: NWS Daily Summary

Daily Weather History Graph

Daily Weather History Graph

Search for Another Location

Airport or City:

Trip Planner

Search our weather history database for the weather conditions in past years. The results will help you decide how hot, cold, wet, or windy it might be!

Date:

Astronomy

Nov. 04, 2013 Rise Set
Actual Time 6:58 AM EST 5:39 PM EST
Civil Twilight 6:32 AM EST 6:05 PM EST
Nautical Twilight 6:02 AM EST 6:35 PM EST
Astronomical Twilight 5:32 AM EST 7:04 PM EST
Moon 8:05 AM EST (11/4) 6:46 PM EST (11/4)
Length of Visible Light 11h 33m
Length of Day
10h 40m
New Moon, 2% of the Moon is Illuminated
Nov 4
New Moon
Nov 10
First Quarter
Nov 17
Full
Nov 25
Last Quarter
Dec 2
New

Hourly Weather History & Observations

Time (EST) Temp. Windchill Dew Point Humidity Pressure Visibility Wind Dir Wind Speed Gust Speed Precip Events Conditions
12:53 AM 46.9 °F - 36.0 °F 66% 30.34 in 10.0 mi ENE 5.8 mph - N/A   Clear
1:53 AM 46.9 °F - 37.0 °F 68% 30.35 in 10.0 mi ENE 6.9 mph - N/A   Clear
2:53 AM 46.0 °F 41.9 °F 36.0 °F 68% 30.35 in 10.0 mi ENE 8.1 mph - N/A   Clear
3:53 AM 45.0 °F 40.6 °F 34.0 °F 65% 30.36 in 10.0 mi East 8.1 mph - N/A   Clear
4:53 AM 45.0 °F 41.2 °F 34.0 °F 65% 30.38 in 10.0 mi ENE 6.9 mph - N/A   Clear
5:53 AM 45.0 °F 38.9 °F 33.1 °F 63% 30.37 in 10.0 mi ENE 12.7 mph 18.4 mph N/A   Clear
6:53 AM 45.0 °F 40.6 °F 32.0 °F 60% 30.42 in 10.0 mi ENE 8.1 mph 19.6 mph N/A   Clear
7:53 AM 46.0 °F 40.2 °F 34.0 °F 63% 30.42 in 10.0 mi ENE 12.7 mph 18.4 mph N/A   Clear
8:53 AM 48.0 °F - 35.1 °F 61% 30.45 in 10.0 mi East 15.0 mph 19.6 mph N/A   Clear
9:53 AM 51.1 °F - 35.1 °F 54% 30.48 in 10.0 mi East 10.4 mph 16.1 mph N/A   Clear
10:53 AM 55.0 °F - 36.0 °F 49% 30.45 in 10.0 mi East 12.7 mph 19.6 mph N/A   Clear
11:53 AM 57.0 °F - 36.0 °F 45% 30.46 in 10.0 mi East 9.2 mph - N/A   Clear
12:53 PM 59.0 °F - 35.1 °F 41% 30.43 in 10.0 mi East 10.4 mph 17.3 mph N/A   Clear
1:53 PM 57.9 °F - 33.1 °F 39% 30.41 in 10.0 mi East 12.7 mph 18.4 mph N/A   Clear
2:53 PM 59.0 °F - 32.0 °F 36% 30.41 in 10.0 mi East 9.2 mph 18.4 mph N/A   Clear
3:53 PM 59.0 °F - 32.0 °F 36% 30.41 in 10.0 mi East 11.5 mph - N/A   Clear
4:53 PM 57.0 °F - 33.1 °F 40% 30.41 in 10.0 mi ENE 6.9 mph - N/A   Clear
5:53 PM 53.1 °F - 33.1 °F 47% 30.40 in 10.0 mi ENE 6.9 mph - N/A   Clear
6:53 PM 50.0 °F - 34.0 °F 54% 30.42 in 10.0 mi ENE 5.8 mph - N/A   Clear
7:53 PM 48.9 °F - 34.0 °F 56% 30.43 in 10.0 mi ENE 6.9 mph - N/A   Clear
8:53 PM 48.0 °F - 35.1 °F 61% 30.45 in 10.0 mi ENE 5.8 mph - N/A   Clear
9:53 PM 46.9 °F - 35.1 °F 63% 30.45 in 10.0 mi East 8.1 mph - N/A   Clear
10:53 PM 46.0 °F 41.4 °F 35.1 °F 66% 30.45 in 10.0 mi East 9.2 mph - N/A   Clear
11:53 PM 45.0 °F 40.6 °F 35.1 °F 68% 30.45 in 10.0 mi East 8.1 mph - N/A   Clear